Theta_e
327 327 325 324 323 323 322 321 323 321 317 314 312 311 309 308 308 307 306 305 304 304 305 305 305 305 306 306 306 307 309 311
321 317 319 320 321 319 317 317 316 315 313 311 310 309 308 308 307 305 303 301 301 300 300 300 300 301 302 303 303 305 306 307
313 311 314 313 312 311 310 309 308 308 307 307 307 307 307 306 304 303 301 300 299 298 298 298 298 298 298 299 299 300 302 305
312 310 309 308 308 307 307 306 306 305 305 305 305 305 305 305 304 303 301 299 298 297 297 297 297 297 297 297 298 298 299 299
310 309 307 307 307 308 306 305 305 304 304 304 304 303 304 303 302 301 300 298 297 297 297 297 297 297 297 297 296 296 297 298
310 308 309 310 308 306 305 304 302 302 302 301 302 301 301 301 301 300 299 298 298 298 297 297 297 297 297 296 296 296 296 296
308 310 309 308 308 307 304 304 303 302 302 302 302 301 301 301 301 300 300 299 299 298 297 297 297 296 296 296 295 295 295 295
312 311 310 309 308 305 303 304 304 303 302 302 302 301 301 300 300 300 300 299 299 298 297 297 296 295 295 294 294 294 294 293
313 311 310 310 306 306 306 305 304 303 302 302 302 301 301 300 300 300 300 299 298 297 296 295 295 294 293 293 292 293 293 293
310 309 309 307 306 307 307 305 304 303 302 302 301 301 301 300 300 299 299 298 297 296 295 295 293 292 292 293 292 292 292 292
309 308 307 306 306 307 307 305 304 302 302 301 301 301 301 300 299 298 297 296 296 295 294 293 293 292 292 291 290 290 291 291
309 307 306 305 306 306 306 305 304 303 302 301 300 300 300 299 298 297 296 297 296 295 293 292 292 292 291 291 290 290 289 290
306 305 305 304 305 306 306 306 304 301 299 299 299 300 299 297 297 297 296 296 295 294 293 292 291 291 291 290 289 290 290 289
308 305 304 304 305 306 305 304 302 299 298 298 299 299 297 297 297 296 295 295 294 293 292 291 290 290 290 290 290 290 289 289
306 305 305 304 303 302 303 302 300 299 299 298 298 298 297 296 295 295 295 294 294 293 292 291 290 290 290 290 290 290 290 290
305 305 305 304 302 301 300 298 298 297 297 297 297 297 296 295 295 295 294 294 293 292 291 291 291 290 290 290 290 290 290 291
305 302 300 300 300 299 298 297 297 295 297 297 295 295 294 293 293 293 293 292 292 291 291 290 291 291 291 290 290 289 289 289
301 299 299 298 298 299 298 297 295 296 296 294 293 293 292 292 291 291 290 290 290 290 290 291 291 292 292 291 290 290 290 290
300 299 298 297 297 297 297 297 295 295 294 292 292 292 291 291 290 289 289 289 290 290 290 291 291 292 291 291 290 291 291 290
Wind_Speed
12 6 5 1 5 7 6 5 5 4 3 2 1 2 4 5 6 6 8 9 11 11 11 11 11 13 12 13 13 14 16 16
13 13 14 9 7 11 10 10 8 4 3 3 5 7 8 7 7 8 8 8 9 10 10 11 12 12 12 12 15 16 17 17
14 11 15 15 10 13 15 15 12 10 7 7 6 8 8 8 7 7 7 7 8 8 10 10 11 12 11 11 12 14 16 15
10 18 14 18 16 12 16 14 15 11 10 9 9 9 8 7 7 7 8 8 7 8 8 9 11 12 12 12 12 12 14 14
11 15 16 17 13 10 15 13 10 10 12 10 10 10 10 8 7 7 8 7 7 8 9 10 11 12 12 13 13 14 14 16
13 13 17 14 10 14 11 9 10 9 8 9 8 8 8 8 7 8 8 8 8 10 11 12 12 13 14 15 15 15 15 16
16 12 10 16 13 6 5 5 5 5 7 7 7 8 9 10 9 10 10 11 10 11 12 14 14 15 16 18 17 17 16 16
9 11 12 8 1 5 4 2 2 4 6 8 9 9 11 12 12 12 13 14 14 14 15 15 16 17 18 18 17 17 16 14
5 9 5 3 5 7 5 2 2 5 8 10 11 12 12 13 13 14 13 13 14 15 15 16 18 17 17 16 17 17 15 16
5 4 2 1 1 4 4 2 3 7 9 10 12 13 13 14 13 12 11 13 14 16 16 18 18 17 16 15 14 15 16 17
4 6 2 2 1 3 3 0 3 5 7 10 13 14 14 11 11 11 12 13 15 15 17 18 17 16 14 14 14 14 16 17
1 7 5 4 2 1 2 2 3 5 8 11 14 15 13 12 12 13 13 14 15 15 17 17 17 15 13 13 15 15 16 17
6 6 5 5 2 2 2 2 4 6 9 12 13 14 13 13 14 13 14 14 13 15 16 16 15 15 15 15 16 16 17 17
3 7 9 8 7 5 4 4 5 8 11 13 15 14 13 14 13 12 11 12 13 15 16 15 16 16 16 16 16 18 18 19
7 8 10 11 11 10 7 5 7 9 13 15 16 15 14 14 15 13 13 14 14 16 16 16 14 14 14 14 17 19 21 22
8 8 11 14 13 12 9 8 8 11 13 15 16 16 14 16 19 14 15 15 13 14 16 14 14 14 13 17 19 21 23 24
10 11 11 13 12 10 8 7 9 11 13 15 16 17 16 16 16 16 15 17 12 15 14 14 14 13 16 23 23 26 26 24
7 8 10 11 12 12 10 7 10 10 13 15 15 17 17 17 17 18 17 14 16 13 13 13 14 15 19 27 26 28 27 25
5 7 10 11 11 13 11 8 9 11 13 15 15 15 16 16 17 18 18 17 14 13 13 14 15 17 22 26 28 25 23 20
Wind_Direction
201 195 142 155 139 153 162 152 146 121 110 95 60 13 346 347 334 331 339 335 337 332 315 313 322 308 305 309 308 299 293 289
84 71 84 75 133 124 112 103 90 76 50 355 332 332 318 317 326 338 345 345 339 335 330 329 329 316 312 309 304 297 290 288
98 99 93 108 86 93 90 84 74 61 39 21 1 331 315 320 324 327 339 342 341 348 346 342 332 325 320 322 318 307 293 287
108 102 107 97 101 85 84 75 62 40 27 10 356 326 310 322 319 318 322 331 341 352 352 343 334 330 324 322 318 311 304 295
122 126 115 120 105 96 77 66 63 40 22 12 9 351 332 334 318 309 313 316 327 335 335 332 329 324 320 318 315 309 301 296
120 116 112 88 76 61 61 60 49 26 20 18 8 349 333 320 320 313 312 312 317 318 318 320 319 318 312 307 305 301 296 290
109 105 93 68 55 42 102 87 54 10 17 2 353 334 329 327 331 320 318 314 314 310 310 308 313 315 310 305 301 295 293 287
109 85 77 86 107 167 155 139 44 7 356 346 340 331 323 320 323 317 316 313 317 312 317 319 315 310 306 304 298 291 290 287
80 97 130 249 182 183 182 174 3 1 351 345 340 330 320 315 311 307 306 313 324 321 323 320 319 313 307 299 294 289 290 288
66 214 158 80 150 198 186 182 351 1 347 345 337 328 321 310 307 308 315 324 317 322 324 321 319 313 308 299 295 286 288 287
176 195 289 356 83 171 177 221 350 342 339 341 338 338 337 319 315 324 324 318 317 323 326 320 311 312 308 302 300 291 289 287
178 23 29 25 73 202 202 242 302 319 336 339 342 343 330 322 321 319 314 316 319 320 323 318 313 312 312 308 305 298 292 287
43 13 3 3 344 268 259 285 316 336 343 341 337 333 331 326 317 320 323 320 323 322 319 318 313 312 311 307 301 296 293 287
338 22 15 16 12 16 356 348 352 350 348 342 325 325 327 325 319 320 331 332 322 322 320 315 318 316 308 298 295 293 287 284
42 46 37 32 27 16 9 12 360 351 343 336 328 331 331 324 316 316 333 326 315 326 324 320 316 315 315 309 309 301 291 284
55 43 26 15 9 13 8 7 352 345 341 338 342 338 335 334 329 330 322 319 316 325 325 323 318 317 324 318 306 301 297 292
43 33 20 4 5 7 352 344 354 354 346 349 350 348 341 342 341 333 329 330 309 328 324 323 324 324 314 328 329 318 309 297
37 27 16 14 9 6 11 6 3 1 358 357 355 359 351 351 351 345 343 347 336 328 325 329 326 322 323 335 341 331 320 318
32 27 26 17 11 8 2 3 359 1 0 359 360 357 357 1 356 353 349 344 337 334 335 330 325 328 337 346 348 342 327 323